Regional Weather Roundup
Issued by NWS Albany, NY

Home | Current Version | Previous Version | Text Only | Print | Product List | Glossary On
Versions: 1 2 3 4 5 6 7 8 9 10 11 12 13 14 15 16 17 18 19 20 21 22 23 24 25 26 27 28 29 30 31 32 33 34 35 36 37 38 39 40 41 42 43 44 45 46 47 48 49 50
000
ASUS41 KALY 021210
RWRALY

NEW YORK STATE HOURLY WEATHER ROUNDUP
NATIONAL WEATHER SERVICE ALBANY NY
700 AM EST MON MAR 02 2015

NOTE: "FAIR" INDICATES FEW OR NO CLOUDS BELOW 12,000 FEET WITH NO
SIGNIFICANT WEATHER AND/OR NO OBSTRUCTIONS TO VISIBILITY.

NYZ032-033-038>043-046>054-057>066-NYZ062>081-021300-
EAST


CITY           SKY/WX    TMP DP  RH WIND       PRES   REMARKS
ALBANY         CLOUDY    26  18  71 NW10      30.04S WCI  16
GLENS FALLS    MOCLDY    17  15  92 CALM      30.00S FOG
POUGHKEEPSIE   CLOUDY    25  21  85 CALM      30.02S FOG
NEWBURGH       CLOUDY    25  25 100 W12       30.02R WCI  14
MONTGOMERY     CLOUDY    30  24  78 W7        30.02R WCI  23
WHITE PLAINS   MOCLDY    28  23  81 NW10      30.00R HAZE    WCI  19
ISLIP          CLOUDY    29  26  89 W9        30.00S FOG     WCI  20
NEW YORK CITY  CLOUDY    31  26  82 W6        30.04R WCI  25
CENTRAL PARK   CLOUDY    32  25  75 W6        30.05R WCI  26
$$

NYZ005>009-017-018-044>046-055-056-021300-
CENTRAL


CITY           SKY/WX    TMP DP  RH WIND       PRES   REMARKS
FULTON         LGT SNOW  22  18  85 W7        30.11R VSB 1   WCI  13
SYRACUSE       LGT SNOW  17  17  98 W10       30.11R FOG     WCI   5
ROME           CLOUDY    19  16  88 W12       30.10R FOG     WCI   7
ELMIRA         CLOUDY    22  15  75 W14       30.13R WCI   9
BINGHAMTON     LGT SNOW  19  15  84 NW8       30.04R FOG     WCI   9
MONTICELLO     CLOUDY    25  21  86 W13G20    29.99R WCI  13
$$

NYZ026>034-041>043-021300-
NORTH


CITY           SKY/WX    TMP DP  RH WIND       PRES   REMARKS
WATERTOWN      LGT SNOW  21  17  84 SW8       30.09S VSB 1   WCI  11
FORT DRUM      NOT AVBL
MASSENA        MOCLDY    20  17  88 W8        30.04S WCI  10
SARANAC LAKE   LGT SNOW  17  13  84 W6        29.89S VSB 1   WCI   9
PLATTSBURGH    LGT SNOW  20  18  92 CALM      29.99R FOG
$$

NYZ001>004-010>016-019>021-021300-
WEST


CITY           SKY/WX    TMP DP  RH WIND       PRES   REMARKS
NIAGARA FALLS  LGT SNOW  20  15  81 W15       30.19R WCI   6
BUFFALO        LGT SNOW  20  15  81 SW14      30.19R WCI   7
DUNKIRK        LGT SNOW  20  17  88 SW18G29   30.25R FOG     WCI   5
JAMESTOWN      CLOUDY    18  14  86 SW13G18   30.16R WCI   4
WELLSVILLE     FLURRIES  18  12  77 W15G24    30.09R WCI   4
ROCHESTER      LGT SNOW  22  16  78 W16       30.15R WCI   8
PENN YAN       CLOUDY    22  13  68 SW9       30.12R WCI  12
$$

             KEY
       WCI = WIND CHILL INDEX
       VSB = VISIBILITY
       HX  = HEAT INDEX
$$



USA.gov is the U.S. government's official web portal to all federal, state and local government web resources and services.